Starlink 33576

operational
NORAD ID: 62775 Int'l Des: 2025-015 Owner: SPXS Country: US Constellation: starlink
LEOCIRCULAR

Über Starlink 33576

Beschreibung wird geladen...

Live-Position

3D-Globus wird geladen...

Nächste Überflüge

Höhenverlauf

Altitude vs Time

uPlot chart will show altitude changes over time

Zweizeiliger Elementsatz

1 62775U 25015T 25352.26716475 .00027364 00000-0 93226-3 0 9992
2 62775 53.1594 340.7521 0001354 86.8508 273.2648 15.30212807 51957
Epoch: 18. Dez. 2025 • Age: 16 hours

Aktueller Status

Höhe 480.5 km
Geschwindigkeit 7.63 km/s
Subsatellitenpunkt 52.48°N, 10.8°W
Startdatum 21. Jan. 2025
Alter 0.9 years
Typ internet

Technische Details

Klassifizierung Payload
Masse 575.00 kg
Trockenmasse 530.00 kg
Gesamtmasse 575.00 kg
Länge 0.30 m
Durchmesser 4.10 m
Spannweite 29.00 m
Form Box + pan
Hersteller SPXS
Bus-Typ Starlink V2MO
Phasenstatus In Orbit
Besitzer/Staat SPXS/US

Große Konstellationen

Loading constellations...